Weather History for KNQI - February, 2013

Change the Weather History Date:

Monday, February 11, 2013

  Actual Average Record
Temperature  
Mean Temperature 62 °F -  
Max Temperature 66 °F 69 °F 75 °F (2015)
Min Temperature 57 °F 50 °F 39 °F (2014)
Degree Days  
Heating Degree Days 4    
Growing Degree Days 12 (Base 50)    
Moisture  
Dew Point 55 °F    
Average Humidity 77    
Maximum Humidity 100    
Minimum Humidity 54    
Precipitation  
Precipitation 0.00 in - - ()
Sea Level Pressure  
Sea Level Pressure 29.92 in    
Wind  
Wind Speed 11 mph (NNE)    
Max Wind Speed 16 mph    
Max Gust Speed 23 mph    
Visibility 7 miles    
Events Rain    
Averages and records for this station are not official NWS values.
T = Trace of Precipitation, MM = Missing Value Source: NWS Daily Summary

Daily Weather History Graph

Daily Weather History Graph

Search for Another Location

Airport or City:

Trip Planner

Search our weather history database for the weather conditions in past years. The results will help you decide how hot, cold, wet, or windy it might be!

Date:

Astronomy

Feb. 11, 2013 Rise Set
Actual Time 7:11 AM CST 6:20 PM CST
Civil Twilight 6:47 AM CST 6:44 PM CST
Nautical Twilight 6:19 AM CST 7:11 PM CST
Astronomical Twilight 5:52 AM CST 7:39 PM CST
Moon 7:49 AM CST (2/11) 8:02 PM CST (2/11)
Length of Visible Light 11h 57m
Length of Day
11h 09m
Waxing Crescent, 3% of the Moon is Illuminated
Feb 11
Waxing Crescent
Feb 17
First Quarter
Feb 25
Full
Mar 4
Last Quarter
Mar 11
New

Hourly Weather History & Observations

Time (CST) Temp. Dew Point Humidity Pressure Visibility Wind Dir Wind Speed Gust Speed Precip Events Conditions
12:56 AM 64.9 °F 48.9 °F 56% 29.92 in 10.0 mi North 11.5 mph - N/A   Overcast
1:36 AM 64.4 °F 48.2 °F 56% 29.94 in 10.0 mi North 10.4 mph - N/A   Overcast
1:56 AM 64.9 °F 48.0 °F 54% 29.93 in 10.0 mi North 10.4 mph - N/A   Overcast
2:03 AM 64.4 °F 48.2 °F 56% 29.93 in 10.0 mi North 10.4 mph - N/A   Overcast
2:38 AM 64.4 °F 48.2 °F 56% 29.91 in 10.0 mi NNE 9.2 mph - N/A   Overcast
2:56 AM 64.0 °F 48.0 °F 56% 29.88 in 10.0 mi NE 6.9 mph - N/A   Overcast
3:56 AM 64.0 °F 50.0 °F 60% 29.90 in 10.0 mi NNE 10.4 mph - N/A   Overcast
4:19 AM 64.4 °F 48.2 °F 56% 29.90 in 10.0 mi NE 11.5 mph - N/A   Overcast
4:41 AM 64.4 °F 50.0 °F 59% 29.91 in 10.0 mi NNE 6.9 mph - N/A   Overcast
4:56 AM 64.0 °F 51.1 °F 63% 29.91 in 10.0 mi North 6.9 mph - N/A   Overcast
5:37 AM 62.6 °F 48.2 °F 59% 29.92 in 10.0 mi North 10.4 mph - N/A   Overcast
5:56 AM 63.0 °F 48.9 °F 60% 29.91 in 10.0 mi North 11.5 mph - N/A   Overcast
6:34 AM 62.6 °F 48.2 °F 59% 29.93 in 10.0 mi NNE 12.7 mph - N/A   Overcast
6:56 AM 63.0 °F 48.9 °F 60% 29.92 in 10.0 mi NNE 11.5 mph - N/A   Overcast
7:56 AM 63.0 °F 50.0 °F 63% 29.93 in 10.0 mi NE 11.5 mph - N/A   Overcast
8:56 AM 64.0 °F 53.1 °F 67% 29.96 in 10.0 mi NE 9.2 mph - N/A   Overcast
9:40 AM 64.4 °F 55.4 °F 73% 29.98 in 8.0 mi ENE 11.5 mph - N/A   Overcast
9:56 AM 64.9 °F 55.9 °F 73% 29.97 in 9.0 mi ENE 10.4 mph - 0.00 in Rain Light Rain
10:26 AM 64.4 °F 57.2 °F 77% 29.98 in 9.0 mi ENE 12.7 mph - 0.00 in   Overcast
10:48 AM 66.2 °F 59.0 °F 78% 29.98 in 7.0 mi NE 13.8 mph - 0.00 in   Overcast
10:56 AM 66.9 °F 59.0 °F 76% 29.97 in 7.0 mi NE 10.4 mph - 0.00 in   Overcast
11:56 AM 66.9 °F 59.0 °F 76% 29.95 in 6.0 mi NNE 11.5 mph - N/A   Haze
12:15 PM 66.2 °F 59.0 °F 78% 29.96 in 6.0 mi NE 11.5 mph - N/A   Haze
12:45 PM 66.2 °F 60.8 °F 83% 29.95 in 6.0 mi NE 11.5 mph - N/A   Haze
12:56 PM 66.0 °F 59.0 °F 78% 29.94 in 6.0 mi NE 12.7 mph - N/A   Haze
1:56 PM 64.9 °F 60.1 °F 84% 29.91 in 7.0 mi NNE 12.7 mph - N/A   Overcast
2:18 PM 64.4 °F 60.8 °F 88% 29.91 in 5.0 mi NNE 15.0 mph - 0.00 in   Light Drizzle
2:56 PM 63.0 °F 60.1 °F 90% 29.89 in 3.0 mi NNE 12.7 mph - 0.00 in   Light Drizzle
3:42 PM 62.6 °F 60.8 °F 94% 29.88 in 3.0 mi NNE 13.8 mph - 0.00 in   Light Drizzle
3:56 PM 63.0 °F 60.1 °F 90% 29.88 in 4.0 mi NNE 12.7 mph 19.6 mph 0.00 in   Light Drizzle
4:56 PM 62.1 °F 59.0 °F 90% 29.88 in 3.0 mi NNE 15.0 mph - 0.00 in   Light Drizzle
5:56 PM 61.0 °F 59.0 °F 93% 29.89 in 4.0 mi NNE 16.1 mph - 0.00 in   Light Drizzle
6:09 PM 62.6 °F 59.0 °F 88% 29.90 in 6.0 mi NNE 12.7 mph - 0.00 in   Overcast
6:56 PM 62.1 °F 57.9 °F 86% 29.88 in 9.0 mi NNE 16.1 mph 20.7 mph 0.00 in   Overcast
7:56 PM 61.0 °F 57.0 °F 87% 29.89 in 9.0 mi NE 16.1 mph 23.0 mph N/A   Overcast
8:17 PM 60.8 °F 57.2 °F 88% 29.91 in 10.0 mi NNE 15.0 mph - N/A   Overcast
8:42 PM 60.8 °F 57.2 °F 88% 29.91 in 9.0 mi NNE 15.0 mph - 0.00 in   Light Drizzle
8:56 PM 60.1 °F 57.0 °F 90% 29.91 in 8.0 mi NNE 15.0 mph - 0.00 in   Light Drizzle
9:36 PM 59.0 °F 57.2 °F 94% 29.93 in 5.0 mi NNE 12.7 mph - 0.00 in   Light Drizzle
9:56 PM 57.9 °F 57.0 °F 97% 29.93 in 3.0 mi NNE 10.4 mph - 0.00 in   Light Drizzle
10:25 PM 57.2 °F 57.2 °F 100% 29.93 in 2.0 mi NNE 11.5 mph - 0.00 in   Light Drizzle
10:56 PM 57.0 °F 55.9 °F 96% 29.92 in 2.5 mi NNE 11.5 mph - 0.00 in   Light Drizzle
11:17 PM 57.2 °F 57.2 °F 100% 29.92 in 2.0 mi NNE 13.8 mph - 0.00 in   Overcast
11:56 PM 57.0 °F 57.0 °F 100% 29.91 in 2.0 mi NNE 9.2 mph - 0.00 in   Overcast